Lid_Strength_Index
-1 -1 -1 -1 -2 -1 -2 -2 -2 -1 -1 -0 -0 -1 -1 -1 -0 5 7 4 2 -0 -0 3 4 3 4 4 4 5 10 12 12 11 11 9 9 8 8 8 6 5 5 4 2
-1 -1 -2 -1 -1 -1 -1 -1 -1 -2 -1 -0 -0 -1 -1 -0 3 6 2 1 0 -0 4 5 6 5 6 6 6 8 10 11 10 10 11 9 9 9 10 8 7 6 4 3 2
-2 -1 -1 -1 -1 -1 -1 -2 -1 -1 -1 -1 -1 -1 -0 2 5 7 -1 -0 -0 1 4 4 5 5 7 7 8 8 10 9 10 10 10 10 10 9 10 10 10 10 5 4 4
-1 -1 -1 -1 -1 -1 -1 -1 -1 -1 -1 -1 -1 -1 1 3 9 5 -1 -1 -1 2 4 5 5 7 8 9 8 10 9 9 9 9 9 10 10 10 11 11 8 6 6 4 5
-1 -1 -1 -1 -1 -1 -2 -2 -2 -1 -1 -1 -1 0 3 7 8 3 -0 1 3 4 5 6 7 7 9 9 8 10 10 9 9 9 10 9 10 11 11 10 9 5 5 4 5
-0 -0 -1 -1 -1 -1 -1 -1 -1 -1 -1 -0 -0 0 3 10 4 3 4 4 4 4 5 5 7 6 8 9 9 9 9 9 9 9 9 10 11 11 11 10 9 5 5 4 4
-0 -0 0 -0 -0 -1 -1 -1 -1 0 0 1 1 4 7 8 4 3 3 4 3 4 5 5 5 6 7 9 8 9 11 10 10 9 10 10 11 12 11 10 10 8 5 5 4
-0 0 0 1 1 1 0 -0 -1 1 1 1 1 3 8 4 3 4 3 3 3 3 4 4 4 6 8 8 9 10 11 13 10 9 9 10 13 10 11 11 10 10 6 5 4
-0 0 0 1 1 1 2 1 -0 1 1 0 2 3 8 2 5 4 4 5 4 3 3 4 5 7 7 10 11 10 15 13 12 10 11 11 13 9 9 10 11 10 10 8 6
0 0 1 0 0 1 1 2 1 1 2 3 4 5 6 8 5 5 4 4 5 4 4 5 6 9 10 10 16 14 14 12 13 11 12 13 12 11 10 10 11 11 11 10 9
1 1 1 0 1 -0 -0 1 3 6 6 9 8 7 7 6 4 6 5 5 4 5 8 7 11 14 13 11 11 12 13 13 12 11 14 13 14 13 12 12 12 11 10 9 8
1 1 1 1 1 0 1 5 6 5 9 7 7 7 7 7 9 8 6 7 8 10 7 10 14 12 10 11 11 12 13 14 12 11 13 14 15 13 12 12 12 12 12 10 10
2 2 1 1 1 2 4 5 3 3 7 8 6 8 7 6 9 9 7 6 9 11 11 12 12 9 10 13 12 13 15 16 15 13 12 15 15 14 12 11 11 11 11 11 10
2 2 2 1 2 3 5 3 3 3 12 11 9 7 6 6 9 6 6 8 9 13 10 12 10 10 11 13 13 14 13 13 14 17 19 15 19 16 14 13 12 12 13 12 11
2 3 2 1 3 5 5 3 3 5 18 11 10 6 6 9 9 8 7 7 11 13 11 14 13 14 15 14 13 15 13 15 16 18 19 18 20 17 14 16 15 14 13 13 12
3 4 3 3 3 5 3 3 5 12 19 16 9 11 11 10 10 9 9 8 9 11 12 14 12 13 14 13 13 13 16 16 17 18 21 24 22 19 17 16 15 14 14 13 13
3 4 5 5 6 4 4 5 13 17 12 15 14 11 13 14 12 11 12 14 15 16 16 15 16 14 13 15 13 15 16 19 21 21 20 26 23 19 16 15 15 15 15 14 14
3 4 5 7 5 5 5 11 17 16 15 12 12 13 15 14 14 13 13 15 14 15 16 19 18 16 14 17 18 17 19 21 27 23 22 26 24 19 15 15 15 15 15 14 14
4 4 5 7 6 6 9 15 15 14 12 14 13 15 15 14 16 14 16 16 16 15 17 19 17 16 16 15 17 17 20 19 24 29 27 21 18 18 16 17 16 16 16 16 15
5 5 6 7 6 6 14 15 16 13 12 13 16 16 18 17 16 16 16 15 15 15 16 18 20 18 16 16 17 17 18 21 21 27 28 22 24 20 21 22 19 18 18 16 16
4 7 6 7 6 11 15 16 16 12 11 14 15 17 17 17 17 17 18 16 14 15 16 17 19 18 18 20 20 20 20 20 20 20 25 26 21 18 23 23 23 22 17 20 19
6 13 6 6 13 14 15 16 13 13 11 12 13 15 16 17 17 18 18 17 14 15 18 17 17 22 18 18 17 19 18 17 22 25 23 23 24 20 22 22 22 22 18 18 19
7 7 5 6 14 15 15 15 13 14 14 14 15 14 14 18 18 17 17 14 14 16 17 17 20 24 20 20 20 21 18 18 21 19 24 25 22 21 21 22 22 22 21 20 18
7 13 12 10 10 13 15 15 15 13 13 14 14 14 16 19 17 19 17 15 14 15 13 14 18 22 23 21 21 22 20 19 21 25 22 21 20 24 23 24 24 23 22 20 20
9 13 12 15 13 14 14 15 16 17 14 13 16 15 16 20 18 22 17 17 15 13 15 16 24 21 20 20 22 22 22 21 22 21 24 20 24 25 26 25 23 22 19 18 17
10 11 13 15 14 15 14 15 16 16 15 15 17 15 15 19 17 18 17 18 18 16 17 17 24 24 26 19 20 23 20 20 21 20 21 20 20 24 24 22 21 19 19 18 17
11 12 11 13 14 15 13 15 15 15 15 14 15 15 16 15 15 15 15 15 17 17 18 20 23 26 27 23 25 26 24 22 22 23 23 26 25 25 25 21 20 19 18 17 17